[[{"header":{"parameterUnit":"m.s-1","parameterCategory":1,"la1":30.2991,"la2":30.254,"lo1":-89.0895,"lo2":-89.0444,"dy":0.0017,"dx":0.0017,"nx":28,"ny":28,"refTime":"2023-08-21T03:00:00:Z","depth":0,"parameterNumber":2,"parameterNumberName":"U-component_of_WINDS"},"data":[0,0,0,0,0,0,0,0,0,0,0,0,0,0,0,0,0,0,0,0,0,0,0,0,0,0,0,0,0,0,0,0,0,0,0,0,0,0,0,0,0,0,0,0,0,0,0,0,0,0,0,0,0,0,0,0,0,0,-1.3587,-1.3586,0,-1.3521,-1.352,-1.3519,-1.3446,-1.3445,-1.3443,-1.3442,-1.3375,-1.3374,-1.3374,0,0,0,0,0,0,0,0,0,0,0,0,0,-1.365,-1.3649,-1.3587,-1.3586,-1.3585,-1.3521,-1.352,-1.3519,-1.3446,-1.3444,-1.3443,-1.3442,-1.3375,-1.3374,-1.3373,0,0,0,0,0,0,0,0,0,0,0,0,0,-1.3607,-1.3649,-1.3587,-1.3541,-1.3536,-1.3521,-1.352,-1.3519,-1.3446,-1.3444,-1.3443,-1.3441,-1.3376,-1.3374,-1.3373,-1.3398,0,0,-1.337,-1.3369,0,0,0,0,0,0,0,0,-1.3609,-1.3605,-1.3549,-1.3544,-1.3539,-1.349,-1.3517,-1.3478,-1.3446,-1.348,-1.3442,-1.3441,-1.3415,-1.341,-1.3401,-1.3395,-1.3392,-1.337,-1.3369,-1.3368,-1.3368,0,0,0,0,0,0,0,-1.3612,-1.3607,-1.3561,-1.3548,-1.3542,-1.3523,-1.3516,-1.351,-1.3457,-1.3477,-1.3472,-1.3465,-1.3412,-1.3403,-1.3399,-1.3391,-1.337,-1.3369,-1.3368,-1.3367,-1.3402,-1.3404,0,0,0,0,0,0,-1.3622,-1.361,-1.3563,-1.3559,-1.3571,-1.3524,-1.3515,-1.3507,-1.3457,-1.3448,-1.3466,-1.3462,-1.3405,-1.3401,-1.3396,-1.3423,-1.3368,-1.3367,-1.3367,-1.3401,-1.3403,-1.3404,0,0,0,0,0,0,-1.3624,-1.3619,-1.3566,-1.3583,-1.3575,-1.3524,-1.3516,-1.3507,-1.3498,-1.3449,-1.3439,-1.3467,-1.3404,-1.3398,-1.3398,-1.3419,-1.3367,-1.3366,-1.3399,-1.3401,-1.3404,-1.3476,0,0,0,0,0,0,-1.3626,-1.362,-1.3629,-1.3584,-1.3574,-1.3569,-1.3517,-1.3507,-1.3496,-1.3489,-1.3447,-1.3438,-1.3402,-1.3401,-1.3397,-1.3417,-1.3365,-1.3397,-1.34,-1.3403,-1.3471,-1.348,-1.3488,0,0,0,0,0,-1.3629,-1.3652,-1.363,-1.3625,-1.3584,-1.357,-1.3565,-1.3523,-1.3498,-1.3506,-1.3475,-1.344,-1.3417,-1.3401,-1.3397,-1.3416,-1.3395,-1.3399,-1.3403,-1.3467,-1.3479,-1.3488,0,0,0,0,0,0,-1.3702,-1.3645,-1.362,-1.363,-1.3605,-1.3558,-1.3568,-1.3536,-1.3518,-1.3513,-1.3461,-1.3452,-1.3459,-1.3437,-1.342,-1.3438,-1.3401,-1.3404,-1.3452,-1.3462,-1.347,-1.3476,-1.3364,0,0,0,0,0,-1.3719,-1.3712,-1.3663,-1.3676,-1.3665,-1.3619,-1.3611,-1.3581,-1.3553,-1.3543,-1.3511,-1.3486,-1.3473,-1.3466,-1.3452,-1.3467,-1.3457,-1.3478,-1.3487,-1.3494,-1.3498,-1.3504,-1.3513,-1.3417,-1.3417,-1.3416,0,0,-1.3754,-1.3723,-1.3722,-1.369,-1.3668,-1.3662,-1.3611,-1.3607,-1.3602,-1.3542,-1.3541,-1.3517,-1.3485,-1.3493,-1.3495,-1.3476,-1.3522,-1.3499,-1.3505,-1.3504,-1.3509,-1.3518,-1.3526,-1.3419,-1.3419,-1.3418,0,0,-1.3816,-1.3792,-1.38,-1.3778,-1.3745,-1.3713,-1.3716,-1.3673,-1.3655,-1.3652,-1.3607,-1.36,-1.358,-1.3559,-1.3546,-1.3599,-1.3566,-1.3596,-1.3641,-1.3648,-1.3655,-1.3662,-1.3682,-1.3689,-1.3599,-1.36,-1.36,0,-1.3865,-1.3854,-1.3808,-1.3807,-1.3794,-1.3739,-1.3748,-1.3729,-1.3693,-1.3685,-1.3663,-1.3636,-1.3611,-1.3613,-1.3626,-1.3617,-1.3618,-1.3601,-1.3658,-1.3664,-1.3669,-1.3688,-1.3695,-1.3604,-1.3603,-1.3603,-1.3602,0,-1.3916,-1.3909,-1.392,-1.3886,-1.3875,-1.3878,-1.3832,-1.3826,-1.3796,-1.3768,-1.3766,-1.3733,-1.3712,-1.371,-1.3681,-1.3708,-1.3697,-1.3667,-1.363,-1.3683,-1.37,-1.3706,-1.3609,-1.3608,-1.3607,-1.3606,0,0,-1.4024,-1.3963,-1.3968,-1.3952,-1.3911,-1.3905,-1.3905,-1.3884,-1.388,-1.3856,-1.3856,-1.3839,-1.3811,-1.3796,-1.3764,-1.377,-1.3816,-1.374,-1.3738,-1.3756,-1.3844,-1.3868,-1.3877,-1.3793,-1.3794,-1.3795,-1.3847,0,-1.4079,-1.4077,-1.4035,-1.4045,-1.4039,-1.3986,-1.3986,-1.3961,-1.3934,-1.3924,-1.3893,-1.3883,-1.3847,-1.3837,-1.3841,-1.3809,-1.3833,-1.3805,-1.3792,-1.3793,-1.3803,-1.3885,-1.391,-1.3961,-1.3853,-1.3854,-1.3855,0,-1.4144,-1.4124,-1.4134,-1.4091,-1.4087,-1.4089,-1.4065,-1.4056,-1.4026,-1.4006,-1.3989,-1.3953,-1.395,-1.3914,-1.391,-1.3892,-1.3884,-1.3868,-1.3869,-1.3867,-1.3828,-1.3887,-1.3977,-1.3985,-1.3864,-1.3864,-1.3863,0,-1.4222,-1.4198,-1.42,-1.4188,-1.4139,-1.4141,-1.4121,-1.4089,-1.4079,-1.4058,-1.4051,-1.4031,-1.402,-1.4005,-1.3964,-1.3941,-1.3965,-1.3925,-1.3949,-1.395,-1.3957,-1.3958,-1.4048,-1.395,-1.395,-1.395,-1.395,0,-1.4289,-1.4298,-1.4235,-1.4237,-1.4244,-1.4195,-1.4204,-1.4178,-1.4151,-1.4146,-1.4099,-1.4096,-1.4041,-1.4032,-1.4,-1.4002,-1.3997,-1.3981,-1.3973,-1.3986,-1.3989,-1.3982,-1.3977,-1.3952,-1.3952,-1.3951,-1.3951,0,-1.4379,-1.4338,-1.4337,-1.429,-1.4279,-1.4286,-1.4246,-1.4246,-1.4215,-1.421,-1.4206,-1.4159,-1.4145,-1.4102,-1.4079,-1.4057,-1.4069,-1.4052,-1.408,-1.4074,-1.4101,-1.41,-1.4191,-1.4201,-1.4096,-1.4097,-1.4098,0,-1.4426,-1.4431,-1.4384,-1.4378,-1.436,-1.435,-1.4339,-1.4291,-1.4281,-1.4247,-1.4251,-1.4234,-1.4218,-1.4199,-1.4162,-1.4144,-1.4127,-1.416,-1.4124,-1.4137,-1.4129,-1.4129,-1.413,-1.4169,-1.417,-1.4171,-1.4172,0,-1.4513,-1.4491,-1.4477,-1.4456,-1.4445,-1.4426,-1.4404,-1.4401,-1.4347,-1.4339,-1.4325,-1.4312,-1.4288,-1.4272,-1.4247,-1.4226,-1.4191,-1.4184,-1.4188,-1.4203,-1.4219,-1.4212,-1.4103,-1.4182,-1.4181,-1.418,-1.418,-1.4179,-1.4583,-1.4585,-1.4552,-1.4538,-1.4517,-1.4497,-1.4495,-1.4463,-1.4451,-1.4427,-1.4399,-1.4388,-1.4357,-1.4321,-1.4302,-1.4293,-1.4274,-1.428,-1.4282,-1.4285,-1.4292,-1.4219,-1.4288,-1.4288,-1.4287,-1.4287,-1.4287,0,-1.4668,-1.4644,-1.4632,-1.4603,-1.4592,-1.4558,-1.4532,-1.4526,-1.4517,-1.4491,-1.4476,-1.4459,-1.4443,-1.4405,-1.4385,-1.4385,-1.4369,-1.4382,-1.4382,-1.4378,-1.4309,-1.4308,-1.4396,-1.4396,-1.4396,-1.4396,-1.4396,-1.4396,-1.4711,-1.4713,-1.4688,-1.4679,-1.4654,-1.4644,-1.4632,-1.4614,-1.4593,-1.4577,-1.4563,-1.4538,-1.4507,-1.4484,-1.4468,-1.4457,-1.4453,-1.4472,-1.4456,-1.4393,-1.4383,-1.4373,-1.4371,-1.4471,-1.4471,-1.4525,-1.4525,-1.4526]},{"header":{"parameterUnit":"m.s-1","parameterCategory":1,"la1":30.2991,"la2":30.254,"lo1":-89.0895,"lo2":-89.0444,"dy":0.0017,"dx":0.0017,"nx":28,"ny":28,"refTime":"2023-08-21T03:00:00:Z","depth":0,"parameterNumber":3,"parameterNumberName":"V-component_of_WINDS"},"data":[0,0,0,0,0,0,0,0,0,0,0,0,0,0,0,0,0,0,0,0,0,0,0,0,0,0,0,0,0,0,0,0,0,0,0,0,0,0,0,0,0,0,0,0,0,0,0,0,0,0,0,0,0,0,0,0,0,0,-1.6996,-1.6996,0,-1.7029,-1.7029,-1.7029,-1.7,-1.6999,-1.6998,-1.6997,-1.7029,-1.7031,-1.7033,0,0,0,0,0,0,0,0,0,0,0,0,0,-1.6907,-1.6909,-1.6996,-1.6996,-1.6997,-1.7029,-1.7029,-1.7029,-1.7,-1.6999,-1.6997,-1.6996,-1.7028,-1.703,-1.7033,0,0,0,0,0,0,0,0,0,0,0,0,0,-1.6943,-1.691,-1.6996,-1.6986,-1.6986,-1.7028,-1.7029,-1.703,-1.7001,-1.6999,-1.6997,-1.6995,-1.7027,-1.703,-1.7033,-1.7087,0,0,-1.7042,-1.7043,0,0,0,0,0,0,0,0,-1.6941,-1.6947,-1.6987,-1.6987,-1.6986,-1.7009,-1.7009,-1.7049,-1.7001,-1.6995,-1.6997,-1.6995,-1.7023,-1.7027,-1.7037,-1.7088,-1.709,-1.7042,-1.7044,-1.7045,-1.7046,0,0,0,0,0,0,0,-1.6939,-1.6945,-1.7009,-1.6988,-1.6987,-1.698,-1.6983,-1.7017,-1.7019,-1.6995,-1.6993,-1.6998,-1.7023,-1.7034,-1.7037,-1.709,-1.7042,-1.7045,-1.7047,-1.7048,-1.7188,-1.719,0,0,0,0,0,0,-1.6938,-1.6943,-1.7008,-1.701,-1.6959,-1.6983,-1.6986,-1.7003,-1.7018,-1.7019,-1.6999,-1.6996,-1.703,-1.7034,-1.7038,-1.7102,-1.7045,-1.7048,-1.705,-1.7186,-1.7188,-1.7191,0,0,0,0,0,0,-1.6936,-1.6944,-1.7007,-1.6976,-1.6983,-1.6986,-1.7005,-1.7005,-1.7016,-1.7021,-1.7021,-1.701,-1.7028,-1.7034,-1.7075,-1.7103,-1.7049,-1.7052,-1.7184,-1.7187,-1.7189,-1.7231,0,0,0,0,0,0,-1.6933,-1.6943,-1.6964,-1.6977,-1.6985,-1.7044,-1.7007,-1.7007,-1.7021,-1.7017,-1.7031,-1.7032,-1.7027,-1.7071,-1.7078,-1.7106,-1.7054,-1.7181,-1.7185,-1.7189,-1.7227,-1.7235,-1.7242,0,0,0,0,0,-1.693,-1.6974,-1.6965,-1.6973,-1.7011,-1.7045,-1.705,-1.7044,-1.7023,-1.7044,-1.7048,-1.7032,-1.7099,-1.7075,-1.7083,-1.7113,-1.7179,-1.7184,-1.7188,-1.7224,-1.7234,-1.7242,0,0,0,0,0,0,-1.6964,-1.6976,-1.6966,-1.7015,-1.7029,-1.704,-1.7066,-1.7054,-1.7075,-1.707,-1.7062,-1.7065,-1.7109,-1.7115,-1.7088,-1.7165,-1.7136,-1.7142,-1.716,-1.7169,-1.7176,-1.7174,-1.7057,0,0,0,0,0,-1.6977,-1.7004,-1.7013,-1.7055,-1.7063,-1.7063,-1.7078,-1.7072,-1.7087,-1.7092,-1.7099,-1.7113,-1.7137,-1.7154,-1.7176,-1.7228,-1.723,-1.7252,-1.7259,-1.7265,-1.7271,-1.7299,-1.7308,-1.7205,-1.7205,-1.7205,0,0,-1.7004,-1.7014,-1.7032,-1.7062,-1.7073,-1.7101,-1.7069,-1.7099,-1.712,-1.7097,-1.7136,-1.7142,-1.7157,-1.7204,-1.7225,-1.721,-1.73,-1.7271,-1.7275,-1.7278,-1.7304,-1.7314,-1.7323,-1.7208,-1.7207,-1.7207,0,0,-1.7069,-1.7079,-1.7115,-1.7127,-1.7143,-1.7143,-1.7152,-1.7165,-1.7168,-1.7208,-1.7191,-1.7215,-1.7257,-1.7269,-1.728,-1.7349,-1.7335,-1.7357,-1.7395,-1.7422,-1.743,-1.7437,-1.7462,-1.7471,-1.7362,-1.7362,-1.7362,0,-1.71,-1.7142,-1.7136,-1.7168,-1.7182,-1.7163,-1.72,-1.7211,-1.7234,-1.7244,-1.7227,-1.728,-1.7288,-1.7338,-1.7355,-1.7365,-1.7374,-1.7355,-1.743,-1.7437,-1.7443,-1.7467,-1.7476,-1.7365,-1.7364,-1.7364,-1.7364,0,-1.7181,-1.721,-1.7238,-1.7261,-1.7278,-1.7313,-1.7311,-1.7329,-1.7322,-1.7323,-1.7364,-1.7374,-1.7398,-1.741,-1.7403,-1.7458,-1.7449,-1.7431,-1.7401,-1.7456,-1.7478,-1.7487,-1.7368,-1.7367,-1.7367,-1.7366,0,0,-1.7267,-1.7287,-1.7297,-1.7308,-1.7325,-1.7347,-1.738,-1.7405,-1.7421,-1.7437,-1.7465,-1.7501,-1.7485,-1.7498,-1.7492,-1.7516,-1.757,-1.7495,-1.7495,-1.7509,-1.7632,-1.7646,-1.7657,-1.7561,-1.7563,-1.7564,-1.7631,0,-1.7332,-1.7391,-1.7386,-1.7442,-1.7469,-1.7452,-1.7481,-1.7494,-1.7497,-1.752,-1.7522,-1.7548,-1.7525,-1.7532,-1.7555,-1.7559,-1.7595,-1.7554,-1.7587,-1.7588,-1.7584,-1.7668,-1.7682,-1.7745,-1.764,-1.7641,-1.7642,0,-1.7416,-1.7436,-1.7495,-1.7509,-1.752,-1.7546,-1.7568,-1.7591,-1.7605,-1.7605,-1.762,-1.761,-1.7644,-1.7613,-1.7659,-1.7631,-1.7644,-1.7648,-1.765,-1.7653,-1.7619,-1.7674,-1.7765,-1.7775,-1.7656,-1.7655,-1.7654,0,-1.7474,-1.7515,-1.7556,-1.7566,-1.7582,-1.7601,-1.7609,-1.7622,-1.7637,-1.7656,-1.7666,-1.7689,-1.7701,-1.7719,-1.7715,-1.7693,-1.7762,-1.7731,-1.7763,-1.7763,-1.7779,-1.7778,-1.7874,-1.7787,-1.7786,-1.7786,-1.7786,0,-1.7547,-1.7584,-1.7582,-1.7607,-1.7648,-1.7642,-1.7682,-1.7687,-1.7699,-1.7724,-1.771,-1.7734,-1.7728,-1.7752,-1.7749,-1.7788,-1.7793,-1.7794,-1.7793,-1.7796,-1.7796,-1.7804,-1.78,-1.7789,-1.7788,-1.7788,-1.7787,0,-1.7618,-1.7619,-1.7662,-1.7674,-1.7678,-1.7708,-1.7718,-1.7742,-1.7743,-1.7775,-1.7783,-1.7785,-1.7812,-1.781,-1.7841,-1.7839,-1.7887,-1.788,-1.7882,-1.7881,-1.7913,-1.7911,-1.8019,-1.8033,-1.7936,-1.7937,-1.7938,0,-1.7665,-1.7693,-1.7709,-1.7725,-1.7735,-1.7761,-1.7777,-1.7772,-1.7789,-1.7808,-1.7829,-1.7855,-1.7876,-1.792,-1.7924,-1.7947,-1.7941,-1.7978,-1.7945,-1.7947,-1.7942,-1.7941,-1.7944,-1.7984,-1.7985,-1.7986,-1.7987,0,-1.7749,-1.7748,-1.7771,-1.7795,-1.7815,-1.7833,-1.785,-1.7864,-1.786,-1.788,-1.7908,-1.7924,-1.7956,-1.7982,-1.8004,-1.8011,-1.7999,-1.7997,-1.8006,-1.8009,-1.8009,-1.801,-1.79,-1.7995,-1.7994,-1.7994,-1.7993,-1.7993,-1.7809,-1.7834,-1.7849,-1.7876,-1.7888,-1.7904,-1.7927,-1.7932,-1.7955,-1.7981,-1.7977,-1.8008,-1.8022,-1.8051,-1.806,-1.8085,-1.8072,-1.8084,-1.8087,-1.8091,-1.8095,-1.8005,-1.8089,-1.8088,-1.8088,-1.8088,-1.8088,0,-1.7893,-1.7902,-1.7927,-1.7951,-1.7972,-1.7959,-1.7977,-1.7995,-1.8024,-1.8038,-1.8059,-1.8091,-1.8117,-1.8123,-1.8147,-1.8165,-1.816,-1.8172,-1.8171,-1.8173,-1.8105,-1.8095,-1.8176,-1.8176,-1.8176,-1.8176,-1.8176,-1.8176,-1.7938,-1.7979,-1.798,-1.8026,-1.8035,-1.8067,-1.8078,-1.8093,-1.8104,-1.8141,-1.8163,-1.8167,-1.8178,-1.8203,-1.8225,-1.8227,-1.8236,-1.825,-1.8249,-1.8186,-1.8177,-1.8169,-1.816,-1.8252,-1.8253,-1.8315,-1.8315,-1.8316]}]]